Content
SEND FEEDBACK

Daily
Averages
Monthly
Summary
United States of America

OWYHEE DAM, OREGON


Home > North America > United States > Oregon
Elevation: 992 meters     Latitude: 43 39N     Longitude: 117 15W

WEATHER
 
SELECT A DAY
Number of Records: 164,092;   Date Range: 4/9/97 - 7/26/14
 
SHARE

PRINT THIS DATA

[ ← Previous Day ]
WEATHER ALMANAC - 31 JANUARY, 2013
[ Next Day → ]
[ °F ]   °C
Weather ElementAverageHighLow
Temperature1.1 °C6.7 °C (3:53 pm)-2 °C (6:03 am)
Dewpoint-0.9 °C2.2 °C (2:53 pm)-3 °C (6:03 am)
Humidity86.7 %93 % (6:03 am)71 % (1:53 pm)
Barometer1029.1 hPa1030.8 hPa (10:53 am)1028.1 hPa (6:03 am)
Wind Speed2.9 km/h9.3 km/h (3:53 pm)
Weather ElementAverage
Visibility11.3 km
Wind DirectionESE (101.7 °)

Weather ElementTotal
Precipitation---
Heating Degree Days16 (Base 18.3)
Averaged from 24 records on 31 January, 2013
WEATHER CONDITIONS BREAKOUT
WIND DIRECTION BREAKOUT
WEATHER BY HOUR - 31 JANUARY, 2013
[ °F ]   °C
Local TimeTemperatureDewpointHumidityBarometerVisibilityWind DirectionWind SpeedGust SpeedPrecipitationEventsConditions
1:53 AM-1.1 °C-2.8 °C88 %1029.5 hPa8 kmCalmClear
2:53 AM-1.1 °C-2.2 °C92 %1030.1 hPa9.7 kmCalmClear
3:53 AM-1.7 °C-2.8 °C92 %1029.8 hPa8 kmCalmClear
4:53 AM-1.1 °C-2.2 °C92 %1029.5 hPa8 kmNNE (30°)5.6 km/hClear
5:53 AM-1.7 °C-2.8 °C92 %1029.5 hPa3.2 kmCalmClear
6:03 AM-2 °C-3 °C93 %1028.1 hPa4.8 kmNW (320°)5.6 km/hClear
6:53 AM-1.7 °C-2.8 °C92 %1030.1 hPa8 kmCalmClear
7:53 AM-0.6 °C-1.7 °C92 %1030.1 hPa9.7 kmCalmMostly Cloudy
8:53 AM0 °C-1.1 °C92 %1030.1 hPa6.4 kmCalmOvercast
9:53 AM1.1 °C-0.6 °C89 %1030.5 hPa8 kmCalmOvercast
10:53 AM1.7 °C0 °C89 %1030.8 hPa8 kmCalmOvercast
11:53 AM1.7 °C0 °C89 %1030.8 hPa8 kmCalmOvercast
12:53 PM4.4 °C0.6 °C77 %1030.1 hPa16.1 kmNNE (30°)5.6 km/hOvercast
1:53 PM6.1 °C1.1 °C71 %1029.5 hPa16.1 kmCalmScattered Clouds
2:53 PM6.1 °C2.2 °C76 %1028.4 hPa16.1 kmCalmClear
3:53 PM6.7 °C1.7 °C71 %1028.1 hPa16.1 kmNorth (350°)9.3 km/hClear
4:53 PM5.6 °C1.1 °C73 %1028.1 hPa16.1 kmNorth (360°)7.4 km/hClear
5:53 PM3.9 °C0.6 °C79 %1028.1 hPa16.1 kmNorth (360°)5.6 km/hClear
6:53 PM1.1 °C-0.6 °C89 %1028.1 hPa16.1 kmCalmClear
7:53 PM0.6 °C-1.1 °C89 %1028.4 hPa16.1 kmWSW (240°)7.4 km/hMostly Cloudy
8:53 PM0 °C-1.1 °C92 %1028.1 hPa14.5 kmWest (260°)5.6 km/hClear
9:53 PM0 °C-1.1 °C92 %1028.1 hPa11.3 kmCalmMostly Cloudy
10:53 PM0 °C-1.7 °C88 %1028.1 hPa14.5 kmWSW (250°)9.3 km/hScattered Clouds
11:53 PM-1.1 °C-2.2 °C92 %1028.1 hPa12.9 kmWSW (240°)7.4 km/hPartly Cloudy
Hourly data recorded from KONO, located 0 kilometers away from Owyhee Dam, Oregon







STORIES FROM OUR PARTNERS